Starlink 31636

operational
NORAD ID: 59747 Int'l Des: 2024-090 Owner: SPXS Country: US Constellation: starlink
LEOCIRCULAR

关于 Starlink 31636

正在加载描述...

实时位置

正在加载3D地球...

即将过境

高度历史

Altitude vs Time

uPlot chart will show altitude changes over time

两行轨道根数

1 59747U 24090T 26034.37163024 -.00004720 00000-0 -16192-3 0 9995
2 59747 43.0002 17.1348 0000727 264.6156 95.4613 15.27619011 98191
Epoch: Feb 3, 2026 • Age: 22 hours

当前状态

高度 487.3 km
速度 7.62 km/s
星下点 -20.62°S, 112.58°E
发射日期 May 13, 2024
运行时间 1.7 years
类型 internet

技术详情

分类 Payload
质量 730.00 kg
干质量 700.00 kg
总质量 730.00 kg
长度 0.30 m
直径 4.10 m
跨度 29.00 m
形状 Box + pan
制造商 SPXS
平台类型 Starlink V2M
阶段状态 In Orbit
所有者/国家 SPXS/US

大型星座

Loading constellations...